• In Hungary
  • List of Countries
  • For 7 days
  • Water Temperature
  • Satellite Maps
  • Weather Map
  • News
  • Weather Widgets
  • user-avatar
    Login

    Hourly Weather Prachin Buri

    Today, 23 February, Friday

    Time Temperature Precipitation Wind Pressure Humidity
    00:00 +30°C° 0.2 mm 1 mps 757 mmHg 73%
    01:00 +29°C° 0 mm 1 mps 757 mmHg 72%
    02:00 +29°C° 0.3 mm 1 mps 757 mmHg 73%
    03:00 +29°C° 0.3 mm 1 mps 757 mmHg 74%
    04:00 +29°C° 0.3 mm 1 mps 757 mmHg 75%
    05:00 +28°C° 0.4 mm 1 mps 757 mmHg 76%
    06:00 +28°C° 0.4 mm 1 mps 757 mmHg 76%
    07:00 +28°C° 0.4 mm 1 mps 758 mmHg 77%
    08:00 +30°C° 0.4 mm 2 mps 758 mmHg 70%
    09:00 +31°C° 0.4 mm 2 mps 758 mmHg 63%
    10:00 +34°C° 0.4 mm 2 mps 758 mmHg 55%
    11:00 +35°C° 0.3 mm 2 mps 758 mmHg 52%
    12:00 +36°C° 0.3 mm 2 mps 757 mmHg 48%
    13:00 +35°C° 0 mm 2 mps 758 mmHg 52%
    14:00 +36°C° 0.3 mm 2 mps 757 mmHg 50%
    15:00 +36°C° 0.3 mm 2 mps 757 mmHg 48%
    16:00 +35°C° 0.3 mm 1 mps 756 mmHg 46%
    17:00 +34°C° 0.7 mm 1 mps 756 mmHg 49%
    18:00 +34°C° 0.7 mm 1 mps 757 mmHg 52%
    19:00 +34°C° 0.7 mm 2 mps 757 mmHg 54%
    20:00 +32°C° 0.7 mm 1 mps 757 mmHg 57%
    21:00 +32°C° 0.7 mm 1 mps 758 mmHg 59%
    22:00 +31°C° 0.7 mm 1 mps 758 mmHg 62%
    23:00 +31°C° 0.3 mm 1 mps 758 mmHg 64%

    Tomorrow, 24 February, Saturday

    Time Temperature Precipitation Wind Pressure Humidity
    00:00 +30°C° 0.3 mm 1 mps 758 mmHg 66%
    01:00 +30°C° 0.3 mm 1 mps 758 mmHg 68%
    02:00 +29°C° 0.1 mm 1 mps 758 mmHg 69%
    03:00 +29°C° 0.1 mm 1 mps 758 mmHg 70%
    04:00 +29°C° 0.1 mm 1 mps 758 mmHg 71%
    05:00 +29°C° 0.5 mm 1 mps 758 mmHg 72%
    06:00 +28°C° 0.5 mm 1 mps 758 mmHg 73%
    07:00 +28°C° 0.5 mm 2 mps 759 mmHg 74%
    08:00 +30°C° 0.1 mm 2 mps 759 mmHg 67%
    09:00 +32°C° 0.1 mm 2 mps 760 mmHg 59%
    10:00 +34°C° 0.1 mm 3 mps 760 mmHg 52%
    11:00 +35°C° 0.3 mm 3 mps 760 mmHg 49%
    12:00 +36°C° 0.3 mm 3 mps 759 mmHg 46%
    13:00 +37°C° 0.3 mm 2 mps 758 mmHg 43%
    14:00 +37°C° 0.4 mm 2 mps 758 mmHg 43%
    15:00 +37°C° 0.4 mm 2 mps 757 mmHg 43%
    16:00 +36°C° 0.4 mm 1 mps 756 mmHg 43%
    17:00 +35°C° 0.4 mm 1 mps 757 mmHg 46%
    18:00 +34°C° 0.4 mm 1 mps 757 mmHg 48%
    19:00 +33°C° 0.4 mm 1 mps 757 mmHg 51%
    20:00 +33°C° 0 mm 1 mps 758 mmHg 54%
    21:00 +32°C° 0 mm 1 mps 758 mmHg 57%
    22:00 +31°C° 0 mm 1 mps 758 mmHg 60%
    23:00 +31°C° 0.2 mm 1 mps 758 mmHg 63%

    Day after tomorrow, 25 February, Sunday

    Time Temperature Precipitation Wind Pressure Humidity
    00:00 +31°C° 0.2 mm 1 mps 758 mmHg 65%
    01:00 +30°C° 0.2 mm 1 mps 758 mmHg 67%
    02:00 +30°C° 0.3 mm 1 mps 758 mmHg 69%
    03:00 +29°C° 0.3 mm 1 mps 757 mmHg 70%
    04:00 +27°C° 0.3 mm 0 mps 757 mmHg 71%
    05:00 +27°C° 0.3 mm 0 mps 757 mmHg 71%
    06:00 +27°C° 0.3 mm 0 mps 758 mmHg 71%
    07:00 +29°C° 0.3 mm 1 mps 758 mmHg 72%
    08:00 +31°C° 0.1 mm 1 mps 758 mmHg 64%
    09:00 +34°C° 0.1 mm 2 mps 759 mmHg 55%
    10:00 +36°C° 0.1 mm 2 mps 759 mmHg 47%
    11:00 +37°C° 0 mm 2 mps 758 mmHg 44%
    12:00 +38°C° 0 mm 3 mps 757 mmHg 40%
    13:00 +39°C° 0 mm 3 mps 757 mmHg 36%
    14:00 +38°C° 0 mm 2 mps 756 mmHg 37%
    15:00 +38°C° 0 mm 2 mps 755 mmHg 37%
    16:00 +38°C° 0 mm 2 mps 755 mmHg 38%
    17:00 +37°C° 0 mm 2 mps 755 mmHg 41%
    18:00 +36°C° 0 mm 2 mps 755 mmHg 43%
    19:00 +35°C° 0 mm 2 mps 756 mmHg 46%
    20:00 +34°C° 0 mm 2 mps 756 mmHg 49%
    21:00 +32°C° 0 mm 2 mps 757 mmHg 51%
    22:00 +32°C° 0 mm 2 mps 757 mmHg 53%
    23:00 +31°C° 0 mm 1 mps 757 mmHg 56%

    26 February, Monday

    Time Temperature Precipitation Wind Pressure Humidity
    00:00 +31°C° 0 mm 1 mps 757 mmHg 58%
    01:00 +30°C° 0 mm 1 mps 757 mmHg 61%
    02:00 +30°C° 0 mm 1 mps 756 mmHg 62%
    03:00 +30°C° 0 mm 1 mps 756 mmHg 64%
    04:00 +29°C° 0 mm 1 mps 756 mmHg 66%
    05:00 +29°C° 0 mm 1 mps 756 mmHg 66%
    06:00 +29°C° 0 mm 2 mps 757 mmHg 66%
    07:00 +29°C° 0 mm 2 mps 758 mmHg 66%
    08:00 +31°C° 0.1 mm 2 mps 758 mmHg 59%
    09:00 +33°C° 0.1 mm 3 mps 758 mmHg 52%
    10:00 +35°C° 0.1 mm 3 mps 759 mmHg 44%
    11:00 +36°C° 0.1 mm 3 mps 758 mmHg 41%
    12:00 +37°C° 0.1 mm 3 mps 757 mmHg 38%
    13:00 +39°C° 0.1 mm 3 mps 756 mmHg 35%
    14:00 +38°C° 0 mm 3 mps 756 mmHg 35%
    15:00 +38°C° 0 mm 2 mps 755 mmHg 35%
    16:00 +38°C° 0 mm 2 mps 754 mmHg 35%
    17:00 +37°C° 0 mm 2 mps 755 mmHg 39%
    18:00 +36°C° 0 mm 2 mps 755 mmHg 42%
    19:00 +34°C° 0 mm 1 mps 755 mmHg 45%
    20:00 +34°C° 0.1 mm 2 mps 756 mmHg 51%
    21:00 +32°C° 0.1 mm 2 mps 756 mmHg 56%
    22:00 +33°C° 0.1 mm 3 mps 757 mmHg 62%
    23:00 +31°C° 0.2 mm 2 mps 757 mmHg 66%

    27 February, Tuesday

    Time Temperature Precipitation Wind Pressure Humidity
    00:00 +30°C° 0.2 mm 2 mps 756 mmHg 69%
    01:00 +30°C° 0.2 mm 1 mps 756 mmHg 73%
    02:00 +29°C° 0.3 mm 1 mps 756 mmHg 74%
    03:00 +29°C° 0.3 mm 1 mps 756 mmHg 75%
    04:00 +29°C° 0.3 mm 1 mps 756 mmHg 76%
    05:00 +29°C° 0.3 mm 1 mps 756 mmHg 75%
    06:00 +29°C° 0.3 mm 1 mps 757 mmHg 75%
    07:00 +29°C° 0.3 mm 1 mps 757 mmHg 74%
    08:00 +31°C° 0 mm 1 mps 758 mmHg 66%
    09:00 +32°C° 0 mm 1 mps 758 mmHg 57%
    10:00 +34°C° 0 mm 1 mps 758 mmHg 49%
    11:00 +35°C° 0.1 mm 1 mps 757 mmHg 46%
    12:00 +37°C° 0.1 mm 1 mps 756 mmHg 43%
    13:00 +39°C° 0.1 mm 1 mps 756 mmHg 39%
    14:00 +37°C° 0 mm 1 mps 755 mmHg 41%
    15:00 +36°C° 0 mm 1 mps 754 mmHg 42%
    16:00 +37°C° 0 mm 2 mps 754 mmHg 44%
    17:00 +36°C° 0.1 mm 2 mps 754 mmHg 47%
    18:00 +35°C° 0.1 mm 2 mps 754 mmHg 50%
    19:00 +35°C° 0.1 mm 2 mps 755 mmHg 52%
    20:00 +34°C° 0 mm 2 mps 755 mmHg 57%
    21:00 +32°C° 0 mm 2 mps 755 mmHg 61%
    22:00 +31°C° 0 mm 3 mps 756 mmHg 65%
    23:00 +31°C° 0 mm 2 mps 756 mmHg 68%

    28 February, Wednesday

    Time Temperature Precipitation Wind Pressure Humidity
    00:00 +30°C° 0 mm 2 mps 756 mmHg 70%
    01:00 +30°C° 0 mm 1 mps 755 mmHg 73%
    02:00 +30°C° 0 mm 1 mps 755 mmHg 74%
    03:00 +29°C° 0 mm 1 mps 755 mmHg 76%
    04:00 +29°C° 0 mm 1 mps 755 mmHg 77%
    05:00 +29°C° 0.3 mm 1 mps 755 mmHg 78%
    06:00 +29°C° 0.3 mm 1 mps 756 mmHg 78%
    07:00 +29°C° 0.3 mm 1 mps 756 mmHg 79%
    08:00 +31°C° 0 mm 1 mps 756 mmHg 69%
    09:00 +33°C° 0 mm 1 mps 757 mmHg 59%
    10:00 +35°C° 0 mm 1 mps 757 mmHg 49%
    11:00 +37°C° 0 mm 1 mps 756 mmHg 43%
    12:00 +39°C° 0 mm 1 mps 755 mmHg 38%
    13:00 +41°C° 0 mm 1 mps 755 mmHg 32%
    14:00 +40°C° 0 mm 1 mps 754 mmHg 34%
    15:00 +39°C° 0 mm 1 mps 754 mmHg 35%
    16:00 +37°C° 0 mm 1 mps 753 mmHg 37%
    17:00 +37°C° 0 mm 2 mps 754 mmHg 42%
    18:00 +36°C° 0 mm 3 mps 754 mmHg 47%
    19:00 +35°C° 0 mm 4 mps 754 mmHg 52%
    20:00 +34°C° 0 mm 3 mps 755 mmHg 57%
    21:00 +33°C° 0 mm 3 mps 755 mmHg 61%
    22:00 +31°C° 0 mm 2 mps 755 mmHg 66%
    23:00 +31°C° 0.1 mm 2 mps 755 mmHg 68%
    Show more